Hakozaki Maru — JJ3662 — position and weather

sailwx.info

Track history (hours):
 
Tides and Currents Weather Stations Pressure Air Temp Water Temp Dewpoint Dewpoint Depression Visibility Wind Speed Wind Dir Waves Ship Positions

Hakozaki Maru

Last reported at 2014-Oct-26 04:32 UTC. Time now 2014-Oct-26 08:42 UTC.
Position N 34°41' E 135°12'.

Length 31 m; draft 2.5 m.

Type: Tug. MMSI: 431000322.

Date/timePositionNaut miles runAvg speedWind from/ knotsBaromVisibWave heightAir tempDewpointWater temp
2014-Oct-26 04:32N 34°41' E 135°12'3 3.0
2014-Oct-26 03:33N 34°42' E 135°16'2 2.2
2014-Oct-26 02:33N 34°41' E 135°18'4 4.5
2014-Oct-26 01:33N 34°41' E 135°12'0 0.2
2014-Oct-26 00:33N 34°41' E 135°12'0 0.0
2014-Oct-25 23:33N 34°41' E 135°12'  
2014-Oct-23 02:33N 34°41' E 135°12'0 0.0
2014-Oct-23 01:33N 34°41' E 135°12'0 0.5
2014-Oct-23 00:33N 34°41' E 135°13'2 1.7
2014-Oct-22 23:33N 34°40' E 135°15'2 2.1
2014-Oct-22 22:33N 34°41' E 135°12'0 0.0
2014-Oct-22 21:33N 34°41' E 135°12'0 0.0
2014-Oct-22 06:11N 34°41' E 135°12'0 0.0
2014-Oct-22 05:33N 34°41' E 135°12'1 1.3
2014-Oct-22 04:34N 34°41' E 135°14'3 3.4
2014-Oct-22 03:33N 34°41' E 135°18'3 2.8
2014-Oct-22 02:34N 34°41' E 135°15'2 1.9
2014-Oct-22 01:33N 34°41' E 135°12'0 0.0
2014-Oct-22 00:33N 34°41' E 135°12'0 0.0
2014-Oct-21 23:33N 34°41' E 135°12'2 1.9
2014-Oct-21 22:33N 34°40' E 135°14'0 0.5
2014-Oct-21 21:34N 34°40' E 135°14'2 1.9
2014-Oct-21 20:34N 34°41' E 135°12'3 0.3
2014-Oct-21 09:25N 34°41' E 135°16'1 1.5
2014-Oct-21 08:33N 34°42' E 135°16'3 2.9
2014-Oct-21 07:33N 34°41' E 135°13'0 0.0
2014-Oct-21 06:33N 34°41' E 135°13'2 2.1
2014-Oct-21 05:33N 34°42' E 135°15'2 1.8
2014-Oct-21 04:33N 34°41' E 135°13'1 0.7
2014-Oct-21 03:33N 34°41' E 135°12'0 0.0
2014-Oct-21 02:33N 34°41' E 135°12'0 0.0
2014-Oct-21 01:33N 34°41' E 135°12'0 0.0
2014-Oct-21 00:33N 34°41' E 135°12'0 0.0
2014-Oct-20 23:33N 34°41' E 135°12'4 4.0
2014-Oct-20 22:33N 34°41' E 135°17'1 0.9
2014-Oct-20 21:33N 34°41' E 135°17'4 4.1
2014-Oct-20 20:33N 34°41' E 135°12'3 0.2
2014-Oct-20 03:33N 34°42' E 135°16'1 1.0
2014-Oct-20 02:34N 34°42' E 135°17'0 0.1
2014-Oct-20 01:33N 34°42' E 135°17'1 1.2
2014-Oct-20 00:33N 34°41' E 135°17'0 0.0
2014-Oct-19 23:33N 34°41' E 135°17'2 2.4
2014-Oct-19 22:33N 34°40' E 135°14'1 1.1
2014-Oct-19 21:33N 34°41' E 135°13'1 0.5
2014-Oct-19 20:33N 34°41' E 135°12'  
2014-Oct-16 09:33N 34°42' E 135°16'2 2.3
2014-Oct-16 08:33N 34°41' E 135°18'1 0.6
2014-Oct-16 07:33N 34°41' E 135°17'0 0.0
2014-Oct-16 06:34N 34°41' E 135°17'0 0.0
2014-Oct-16 05:33N 34°41' E 135°17'3 3.2
2014-Oct-16 04:33N 34°41' E 135°14'  
Track history (hours):
 
Tides and Currents Weather Stations Pressure Air Temp Water Temp Dewpoint Dewpoint Depression Visibility Wind Speed Wind Dir Waves Ship Positions

Hakozaki Maru

Last reported at 2014-Oct-26 04:32 UTC. Time now 2014-Oct-26 08:42 UTC.
Position N 34°41' E 135°12'.

Length 31 m; draft 2.5 m.

Type: Tug. MMSI: 431000322.

Date/timePositionNaut miles runAvg speedWind from/ knotsBaromVisibWave heightAir tempDewpointWater temp
2014-Oct-26 04:32N 34°41' E 135°12'3 3.0
2014-Oct-26 03:33N 34°42' E 135°16'2 2.2
2014-Oct-26 02:33N 34°41' E 135°18'4 4.5
2014-Oct-26 01:33N 34°41' E 135°12'0 0.2
2014-Oct-26 00:33N 34°41' E 135°12'0 0.0
2014-Oct-25 23:33N 34°41' E 135°12'  
2014-Oct-23 02:33N 34°41' E 135°12'0 0.0
2014-Oct-23 01:33N 34°41' E 135°12'0 0.5
2014-Oct-23 00:33N 34°41' E 135°13'2 1.7
2014-Oct-22 23:33N 34°40' E 135°15'2 2.1
2014-Oct-22 22:33N 34°41' E 135°12'0 0.0
2014-Oct-22 21:33N 34°41' E 135°12'0 0.0
2014-Oct-22 06:11N 34°41' E 135°12'0 0.0
2014-Oct-22 05:33N 34°41' E 135°12'1 1.3
2014-Oct-22 04:34N 34°41' E 135°14'3 3.4
2014-Oct-22 03:33N 34°41' E 135°18'3 2.8
2014-Oct-22 02:34N 34°41' E 135°15'2 1.9
2014-Oct-22 01:33N 34°41' E 135°12'0 0.0
2014-Oct-22 00:33N 34°41' E 135°12'0 0.0
2014-Oct-21 23:33N 34°41' E 135°12'2 1.9
2014-Oct-21 22:33N 34°40' E 135°14'0 0.5
2014-Oct-21 21:34N 34°40' E 135°14'2 1.9
2014-Oct-21 20:34N 34°41' E 135°12'3 0.3
2014-Oct-21 09:25N 34°41' E 135°16'1 1.5
2014-Oct-21 08:33N 34°42' E 135°16'3 2.9
2014-Oct-21 07:33N 34°41' E 135°13'0 0.0
2014-Oct-21 06:33N 34°41' E 135°13'2 2.1
2014-Oct-21 05:33N 34°42' E 135°15'2 1.8
2014-Oct-21 04:33N 34°41' E 135°13'1 0.7
2014-Oct-21 03:33N 34°41' E 135°12'0 0.0
2014-Oct-21 02:33N 34°41' E 135°12'0 0.0
2014-Oct-21 01:33N 34°41' E 135°12'0 0.0
2014-Oct-21 00:33N 34°41' E 135°12'0 0.0
2014-Oct-20 23:33N 34°41' E 135°12'4 4.0
2014-Oct-20 22:33N 34°41' E 135°17'1 0.9
2014-Oct-20 21:33N 34°41' E 135°17'4 4.1
2014-Oct-20 20:33N 34°41' E 135°12'3 0.2
2014-Oct-20 03:33N 34°42' E 135°16'1 1.0
2014-Oct-20 02:34N 34°42' E 135°17'0 0.1
2014-Oct-20 01:33N 34°42' E 135°17'1 1.2
2014-Oct-20 00:33N 34°41' E 135°17'0 0.0
2014-Oct-19 23:33N 34°41' E 135°17'2 2.4
2014-Oct-19 22:33N 34°40' E 135°14'1 1.1
2014-Oct-19 21:33N 34°41' E 135°13'1 0.5
2014-Oct-19 20:33N 34°41' E 135°12'  
2014-Oct-16 09:33N 34°42' E 135°16'2 2.3
2014-Oct-16 08:33N 34°41' E 135°18'1 0.6
2014-Oct-16 07:33N 34°41' E 135°17'0 0.0
2014-Oct-16 06:34N 34°41' E 135°17'0 0.0
2014-Oct-16 05:33N 34°41' E 135°17'3 3.2
2014-Oct-16 04:33N 34°41' E 135°14'  

Dump ship's entire track history